Time,TemperatureF,DewpointF,PressureIn,WindDirection,WindDirectionDegrees,WindSpeedMPH,WindSpeedGustMPH,Humidity,HourlyPrecipIn,Conditions,Clouds,dailyrainin,SoftwareType,DateUTC
2013-04-23 00:40:00,11.0,9.0,-100.00,SSW,210,1.0,4.0,92,-99.99,,,-99.99,,2013-04-23 06:40:00,
2013-04-23 00:52:00,11.0,9.0,-100.00,SSW,210,1.0,4.0,92,-99.99,,,-99.99,,2013-04-23 06:52:00,
2013-04-23 01:02:00,11.0,9.0,-100.00,SSW,210,1.0,4.0,92,-99.99,,,-99.99,,2013-04-23 07:02:00,
2013-04-23 01:11:00,11.0,9.0,-100.00,SSW,210,1.0,4.0,92,-99.99,,,-99.99,,2013-04-23 07:11:00,
2013-04-23 01:21:00,11.0,9.0,-100.00,SSW,210,1.0,4.0,92,-99.99,,,-99.99,,2013-04-23 07:21:00,
2013-04-23 01:32:00,11.0,9.0,-100.00,SSW,210,1.0,4.0,92,-99.99,,,-99.99,,2013-04-23 07:32:00,
2013-04-23 04:50:00,10.0,8.0,-100.00,WSW,240,1.0,4.0,92,-99.99,,,-99.99,,2013-04-23 10:50:00,
2013-04-23 04:52:00,10.0,8.0,-100.00,West,270,0.0,3.0,92,-99.99,,,-99.99,,2013-04-23 10:52:00,
2013-04-23 05:03:00,10.0,8.0,-100.00,WSW,240,1.0,4.0,92,-99.99,,,-99.99,,2013-04-23 11:03:00,
2013-04-23 05:12:00,10.0,8.0,-100.00,WSW,240,1.0,4.0,92,-99.99,,,-99.99,,2013-04-23 11:12:00,
2013-04-23 05:21:00,10.0,8.0,-100.00,WSW,240,1.0,4.0,92,-99.99,,,-99.99,,2013-04-23 11:21:00,
2013-04-23 05:32:00,10.0,8.0,-100.00,WSW,240,1.0,4.0,92,-99.99,,,-99.99,,2013-04-23 11:32:00,
2013-04-23 05:42:00,10.0,8.0,-100.00,WSW,240,1.0,4.0,92,-99.99,,,-99.99,,2013-04-23 11:42:00,
2013-04-23 08:52:00,13.0,9.0,-100.00,ENE,60,2.0,6.0,84,-99.99,,,-99.99,,2013-04-23 14:52:00,
2013-04-23 09:01:00,13.0,9.0,-100.00,ENE,60,2.0,6.0,84,-99.99,,,-99.99,,2013-04-23 15:01:00,
2013-04-23 09:12:00,13.0,10.0,-100.00,NE,55,4.0,6.0,84,-99.99,,,-99.99,,2013-04-23 15:12:00,
2013-04-23 09:21:00,15.0,11.0,-100.00,ENE,65,2.0,5.0,83,-99.99,,,-99.99,,2013-04-23 15:21:00,
2013-04-23 09:32:00,16.0,11.0,-100.00,NE,55,1.0,4.0,82,-99.99,,,-99.99,,2013-04-23 15:32:00,
2013-04-23 09:42:00,16.0,11.0,-100.00,ENE,60,2.0,4.0,81,-99.99,,,-99.99,,2013-04-23 15:42:00,
2013-04-23 09:52:00,16.0,11.0,-100.00,NE,50,3.0,7.0,80,-99.99,,,-99.99,,2013-04-23 15:52:00,
2013-04-23 10:02:00,18.0,13.0,-100.00,NE,50,3.0,6.0,79,-99.99,,,-99.99,,2013-04-23 16:02:00,
2013-04-23 10:12:00,19.0,13.0,-100.00,North,0,2.0,7.0,77,-99.99,,,-99.99,,2013-04-23 16:12:00,
2013-04-23 10:23:00,19.0,13.0,-100.00,North,10,4.0,7.0,75,-99.99,,,-99.99,,2013-04-23 16:23:00,
2013-04-23 10:34:00,19.0,12.0,-100.00,North,5,4.0,9.0,75,-99.99,,,-99.99,,2013-04-23 16:34:00,
2013-04-23 10:42:00,18.0,11.0,-100.00,ENE,60,4.0,7.0,75,-99.99,,,-99.99,,2013-04-23 16:42:00,
2013-04-23 10:52:00,17.0,11.0,-100.00,North,5,2.0,7.0,75,-99.99,,,-99.99,,2013-04-23 16:52:00,
2013-04-23 11:02:00,17.0,11.0,-100.00,NE,50,2.0,6.0,76,-99.99,,,-99.99,,2013-04-23 17:02:00,
2013-04-23 11:11:00,17.0,11.0,-100.00,NE,55,2.0,6.0,77,-99.99,,,-99.99,,2013-04-23 17:11:00,
2013-04-23 11:22:00,18.0,12.0,-100.00,North,10,2.0,4.0,77,-99.99,,,-99.99,,2013-04-23 17:22:00,
2013-04-23 11:32:00,18.0,12.0,-100.00,NE,55,3.0,6.0,76,-99.99,,,-99.99,,2013-04-23 17:32:00,
2013-04-23 11:42:00,18.0,12.0,-100.00,ENE,60,2.0,6.0,75,-99.99,,,-99.99,,2013-04-23 17:42:00,
2013-04-23 11:53:00,19.0,12.0,-100.00,NE,55,2.0,6.0,74,-99.99,,,-99.99,,2013-04-23 17:53:00,
2013-04-23 12:02:00,19.0,12.0,-100.00,ENE,65,1.0,5.0,74,-99.99,,,-99.99,,2013-04-23 18:02:00,
2013-04-23 12:12:00,19.0,12.0,-100.00,ENE,65,1.0,5.0,74,-99.99,,,-99.99,,2013-04-23 18:12:00,
2013-04-23 12:22:00,19.0,12.0,-100.00,ENE,60,2.0,7.0,73,-99.99,,,-99.99,,2013-04-23 18:22:00,
2013-04-23 12:32:00,21.0,13.0,-100.00,NNE,15,1.0,5.0,72,-99.99,,,-99.99,,2013-04-23 18:32:00,
2013-04-23 12:42:00,22.0,14.0,-100.00,NE,50,1.0,8.0,71,-99.99,,,-99.99,,2013-04-23 18:42:00,
2013-04-23 12:52:00,22.0,14.0,-100.00,NE,45,2.0,7.0,70,-99.99,,,-99.99,,2013-04-23 18:52:00,
2013-04-23 13:02:00,21.0,13.0,-100.00,NE,45,3.0,6.0,70,-99.99,,,-99.99,,2013-04-23 19:02:00,
2013-04-23 13:11:00,21.0,13.0,-100.00,North,5,4.0,7.0,70,-99.99,,,-99.99,,2013-04-23 19:11:00,
2013-04-23 13:21:00,22.0,14.0,-100.00,NE,40,2.0,6.0,70,-99.99,,,-99.99,,2013-04-23 19:21:00,
2013-04-23 13:32:00,23.0,15.0,-100.00,North,0,1.0,6.0,69,-99.99,,,-99.99,,2013-04-23 19:32:00,
2013-04-23 13:42:00,23.0,15.0,-100.00,NE,45,2.0,7.0,68,-99.99,,,-99.99,,2013-04-23 19:42:00,
2013-04-23 13:52:00,23.0,14.0,-100.00,North,5,3.0,7.0,68,-99.99,,,-99.99,,2013-04-23 19:52:00,
2013-04-23 14:01:00,23.0,15.0,-100.00,NNE,25,3.0,7.0,70,-99.99,,,-99.99,,2013-04-23 20:01:00,
2013-04-23 14:11:00,24.0,15.0,-100.00,North,5,3.0,6.0,70,-99.99,,,-99.99,,2013-04-23 20:11:00,
2013-04-23 14:21:00,24.0,15.0,-100.00,NE,35,3.0,6.0,68,-99.99,,,-99.99,,2013-04-23 20:21:00,
2013-04-23 14:31:00,24.0,15.0,-100.00,NE,45,3.0,6.0,68,-99.99,,,-99.99,,2013-04-23 20:31:00,
2013-04-23 14:42:00,26.0,16.0,-100.00,North,10,4.0,9.0,65,-99.99,,,-99.99,,2013-04-23 20:42:00,
2013-04-23 14:51:00,25.0,15.0,-100.00,North,5,4.0,9.0,67,-99.99,,,-99.99,,2013-04-23 20:51:00,
2013-04-23 15:01:00,26.0,17.0,-100.00,North,0,5.0,10.0,67,-99.99,,,-99.99,,2013-04-23 21:01:00,
2013-04-23 15:12:00,28.0,18.0,-100.00,North,10,2.0,9.0,67,-99.99,,,-99.99,,2013-04-23 21:12:00,
2013-04-23 15:21:00,30.0,20.0,-100.00,NE,45,4.0,9.0,63,-99.99,,,-99.99,,2013-04-23 21:21:00,
2013-04-23 15:32:00,30.0,19.0,-100.00,NE,50,4.0,11.0,62,-99.99,,,-99.99,,2013-04-23 21:32:00,
2013-04-23 15:43:00,29.0,19.0,-100.00,NNE,30,4.0,9.0,65,-99.99,,,-99.99,,2013-04-23 21:43:00,
2013-04-23 15:52:00,29.0,18.0,-100.00,North,10,4.0,7.0,62,-99.99,,,-99.99,,2013-04-23 21:52:00,
2013-04-23 16:03:00,29.0,18.0,-100.00,North,0,4.0,9.0,62,-99.99,,,-99.99,,2013-04-23 22:03:00,
2013-04-23 16:12:00,28.0,17.0,-100.00,North,0,6.0,9.0,63,-99.99,,,-99.99,,2013-04-23 22:12:00,
2013-04-23 16:22:00,27.0,17.0,-100.00,NNW,340,3.0,7.0,63,-99.99,,,-99.99,,2013-04-23 22:22:00,
2013-04-23 16:33:00,29.0,17.0,-100.00,North,5,2.0,13.0,60,-99.99,,,-99.99,,2013-04-23 22:33:00,
2013-04-23 16:42:00,29.0,15.0,-100.00,NNW,335,6.0,12.0,57,-99.99,,,-99.99,,2013-04-23 22:42:00,
2013-04-23 16:52:00,27.0,15.0,-100.00,North,355,4.0,12.0,59,-99.99,,,-99.99,,2013-04-23 22:52:00,
2013-04-23 17:02:00,28.0,14.0,-100.00,SSW,200,3.0,11.0,53,-99.99,,,-99.99,,2013-04-23 23:02:00,
2013-04-23 17:12:00,27.0,12.0,-100.00,NW,305,3.0,14.0,51,-99.99,,,-99.99,,2013-04-23 23:12:00,
2013-04-23 17:22:00,26.0,11.0,-100.00,South,185,3.0,10.0,52,-99.99,,,-99.99,,2013-04-23 23:22:00,
2013-04-23 17:32:00,26.0,12.0,-100.00,SW,230,2.0,7.0,54,-99.99,,,-99.99,,2013-04-23 23:32:00,
2013-04-23 17:42:00,29.0,14.0,-100.00,NW,305,2.0,12.0,51,-99.99,,,-99.99,,2013-04-23 23:42:00,
2013-04-23 17:52:00,29.0,13.0,-100.00,NNW,340,1.0,14.0,51,-99.99,,,-99.99,,2013-04-23 23:52:00,
2013-04-23 18:01:00,27.0,11.0,-100.00,NW,310,9.0,12.0,50,-99.99,,,-99.99,,2013-04-24 00:01:00,
2013-04-23 18:11:00,27.0,11.0,-100.00,NNW,335,3.0,12.0,48,-99.99,,,-99.99,,2013-04-24 00:11:00,
2013-04-23 18:21:00,29.0,12.0,-100.00,WNW,290,4.0,12.0,49,-99.99,,,-99.99,,2013-04-24 00:21:00,
2013-04-23 18:32:00,29.0,12.0,-100.00,East,95,2.0,8.0,49,-99.99,,,-99.99,,2013-04-24 00:32:00,
2013-04-23 18:41:00,26.0,11.0,-100.00,NNE,20,2.0,12.0,51,-99.99,,,-99.99,,2013-04-24 00:41:00,
2013-04-23 18:51:00,25.0,11.0,-100.00,NW,320,5.0,9.0,54,-99.99,,,-99.99,,2013-04-24 00:51:00,
2013-04-23 19:01:00,25.0,12.0,-100.00,NW,310,6.0,11.0,58,-99.99,,,-99.99,,2013-04-24 01:01:00,
2013-04-23 19:11:00,26.0,13.0,-100.00,SE,145,1.0,7.0,57,-99.99,,,-99.99,,2013-04-24 01:11:00,
2013-04-23 19:21:00,25.0,12.0,-100.00,NNW,335,1.0,7.0,56,-99.99,,,-99.99,,2013-04-24 01:21:00,
2013-04-23 19:32:00,24.0,10.0,-100.00,WNW,300,2.0,5.0,55,-99.99,,,-99.99,,2013-04-24 01:32:00,
2013-04-23 19:42:00,22.0,10.0,-100.00,SSW,210,4.0,7.0,58,-99.99,,,-99.99,,2013-04-24 01:42:00,
2013-04-23 19:52:00,21.0,9.0,-100.00,NE,55,0.0,9.0,59,-99.99,,,-99.99,,2013-04-24 01:52:00,
2013-04-23 20:02:00,20.0,10.0,-100.00,NNW,340,0.0,3.0,64,-99.99,,,-99.99,,2013-04-24 02:02:00,
2013-04-23 20:15:00,20.0,11.0,-100.00,East,90,2.0,2.0,67,-99.99,,,-99.99,,2013-04-24 02:15:00,
2013-04-23 20:36:00,18.0,10.0,-100.00,ENE,70,1.0,4.0,68,-99.99,,,-99.99,,2013-04-24 02:36:00,
2013-04-23 20:46:00,17.0,10.0,-100.00,SE,140,1.0,3.0,71,-99.99,,,-99.99,,2013-04-24 02:46:00,
2013-04-23 20:55:00,17.0,9.0,-100.00,SSE,150,1.0,4.0,73,-99.99,,,-99.99,,2013-04-24 02:55:00,
2013-04-23 21:06:00,16.0,9.0,-100.00,SE,135,0.0,2.0,74,-99.99,,,-99.99,,2013-04-24 03:06:00,
2013-04-23 21:14:00,14.0,8.0,-100.00,SW,220,1.0,6.0,76,-99.99,,,-99.99,,2013-04-24 03:14:00,
2013-04-23 21:27:00,14.0,9.0,-100.00,SSW,200,2.0,6.0,77,-99.99,,,-99.99,,2013-04-24 03:27:00,
2013-04-23 21:38:00,15.0,9.0,-100.00,SSW,200,4.0,6.0,78,-99.99,,,-99.99,,2013-04-24 03:38:00,
2013-04-23 21:48:00,15.0,9.0,-100.00,SSW,200,4.0,6.0,78,-99.99,,,-99.99,,2013-04-24 03:48:00,
2013-04-23 21:55:00,14.0,9.0,-100.00,South,175,3.0,6.0,77,-99.99,,,-99.99,,2013-04-24 03:55:00,
2013-04-23 22:03:00,15.0,9.0,-100.00,SSW,210,3.0,8.0,75,-99.99,,,-99.99,,2013-04-24 04:03:00,
2013-04-23 22:12:00,16.0,9.0,-100.00,SSW,205,4.0,7.0,74,-99.99,,,-99.99,,2013-04-24 04:12:00,
2013-04-23 22:23:00,16.0,9.0,-100.00,SSW,195,2.0,9.0,73,-99.99,,,-99.99,,2013-04-24 04:23:00,
2013-04-23 22:30:00,16.0,8.0,-100.00,SW,235,6.0,12.0,70,-99.99,,,-99.99,,2013-04-24 04:30:00,
2013-04-23 22:33:00,16.0,9.0,-100.00,SSW,195,2.0,9.0,73,-99.99,,,-99.99,,2013-04-24 04:33:00,
2013-04-23 22:43:00,16.0,8.0,-100.00,SW,235,6.0,12.0,70,-99.99,,,-99.99,,2013-04-24 04:43:00,
2013-04-23 22:52:00,16.0,8.0,-100.00,SW,235,6.0,12.0,70,-99.99,,,-99.99,,2013-04-24 04:52:00,
2013-04-23 23:02:00,16.0,8.0,-100.00,SW,235,6.0,12.0,70,-99.99,,,-99.99,,2013-04-24 05:02:00,
2013-04-23 23:12:00,16.0,8.0,-100.00,SW,235,6.0,12.0,70,-99.99,,,-99.99,,2013-04-24 05:12:00,
2013-04-23 23:21:00,16.0,8.0,-100.00,SW,235,6.0,12.0,70,-99.99,,,-99.99,,2013-04-24 05:21:00,
2013-04-23 23:42:00,19.0,8.0,-100.00,NW,325,1.0,12.0,62,-99.99,,,-99.99,,2013-04-24 05:42:00,
2013-04-23 23:52:00,17.0,8.0,-100.00,ENE,60,2.0,6.0,66,-99.99,,,-99.99,,2013-04-24 05:52:00,